Regional Weather Roundup
Issued by NWS

Home | Current Version | Previous Version | Text Only | Print | Product List | Glossary On
Versions: 1 2 3 4 5 6 7 8 9 10 11 12 13 14 15 16 17 18 19 20 21 22 23 24 25 26 27 28 29 30 31 32 33 34 35 36 37 38 39 40 41 42 43 44 45 46 47 48 49
000
ASUS42 KFFC 301703
RWRGA
WEATHER ROUNDUP FOR GEORGIA
NATIONAL WEATHER SERVICE PEACHTREE CITY GA
100 PM EDT SAT MAY 30 2015

NOTE: "FAIR" INDICATES FEW OR NO CLOUDS BELOW 12,000 FEET WITH NO
SIGNIFICANT WEATHER AND/OR OBSTRUCTIONS TO VISIBILITY.

* = USE WITH CAUTION. THE STATIONS MARKED WITH AN ASTERISK MAY NOT
REPORT WEATHER SUCH AS PRECIPITATION, FOG, OR THUNDER AND ARE NOT
QUALITY CONTROLLED BY NWS.

THE REMARK "TC" DENOTES TEMPERATURE READING IN DEGREES CELSIUS.

GAZ001>058-301800-
NORTH GEORGIA

CITY           SKY/WX    TMP DP  RH WIND       PRES   REMARKS
ATLANTA        PTSUNNY   82  64  54 SE8       30.17F
ATHENS         MOSUNNY   83  66  56 E8        30.18F
CHAMBLEE       SUNNY     82  64  54 SE7G17    30.17F
PEACHTREE CITY PTSUNNY   82  64  54 CALM      30.17F
ROME           CLOUDY    80  67  64 S3        30.14F
WEST ATLANTA   PTSUNNY   81  63  54 SE8       30.16F
GAINESVILLE    PTSUNNY   80  65  59 SE9G16    30.21F
CARTERSVILLE   MOSUNNY   82  65  56 VRB6      30.16F


CITY           SKY/WX    TMP DP  RH WIND       PRES   REMARKS
DALTON*        MOSUNNY   81  64  57 SE7       30.16F
LAWRENCEVILLE* PTSUNNY   81  63  54 E7        30.17F
MARIETTA       PTSUNNY   82  66  59 SE8       30.17F
KENNESAW*      MOSUNNY   81  66  61 S8        30.17F
BLAIRSVILLE*     N/A     79  26  14 S6        30.22F
$$

GAZ059>098-102>109-301800-
CENTRAL GEORGIA

CITY           SKY/WX    TMP DP  RH WIND       PRES   REMARKS
AUGUSTA-BUSH   MOSUNNY   85  65  51 E8        30.15F
AUGUSTA-DANIEL MOSUNNY   85  63  47 VRB7      30.17F
COLUMBUS       MOSUNNY   83  64  52 E8        30.13F
MACON          MOSUNNY   84  65  52 VRB6      30.15F
ROBINS AFB     MOSUNNY   83  68  59 VRB1      30.14F


CITY           SKY/WX    TMP DP  RH WIND       PRES   REMARKS
LAGRANGE*      MOSUNNY   86  71  60 SE9       30.15F HX  91
SYLVANIA*      CLOUDY    84  71  63 E9        30.16F
MILLEDGEVILLE* PTSUNNY   81  70  69 CALM      30.16F
$$

GAZ099>101-110>166-301800-
SOUTH GEORGIA

CITY           SKY/WX    TMP DP  RH WIND       PRES   REMARKS
SAVANNAH       PTSUNNY   78  71  79 NE8       30.16F
VALDOSTA       SUNNY     86  67  52 E9        30.12F
ALMA           MOSUNNY   86  66  51 VRB5      30.12F
FT STEWART     PTSUNNY   85  69  60 NE13G23   30.13S
ALBANY         PTSUNNY   85  63  47 CALM      30.15S
HUNTER AFB     PTSUNNY   82  70  65 E13       30.13S
MOODY AFB      PTSUNNY   84  65  52 VRB3      30.11F
BRUNSWICK      PTSUNNY   79  70  73 E8        30.15F


CITY           SKY/WX    TMP DP  RH WIND       PRES   REMARKS
BAINBRIDGE*    SUNNY     88  70  55 NE3       30.12F HX  92
MOULTRIE*      MOSUNNY   82  64  54 NE5       30.13F
VIDALIA*       MOSUNNY   86  64  48 SE3       30.14F
WAYCROSS*      MOSUNNY   84  71  63 E9        30.12F
DOUGLAS*       MOSUNNY   86  68  54 SE5       30.14F
$$



USA.gov is the U.S. government's official web portal to all federal, state and local government web resources and services.